Cherryvale, KS

6:52 AM CST on February 08, 2016 (GMT -0600)
Tri-City

Weather History for KPPF - December, 2012

Change the Weather History Date:

Wednesday, December 26, 2012

  Actual Average (KCNU) Record (KCNU)
Temperature  
Mean Temperature 22 °F 33 °F  
Max Temperature 32 °F 42 °F 70 °F (2008)
Min Temperature 12 °F 24 °F 0 °F (1983)
Degree Days  
Heating Degree Days 43 32  
Month to date heating degree days 777  
Since 1 July heating degree days 1629  
Cooling Degree Days 0 0  
Month to date cooling degree days 0  
Year to date cooling degree days 1532  
Moisture  
Dew Point 11 °F    
Average Humidity 67    
Maximum Humidity 80    
Minimum Humidity 51    
Precipitation  
Precipitation 0.00 in 0.05 in 0.82 in (1942)
Month to date precipitation 1.52  
Year to date precipitation 41.84  
Sea Level Pressure  
Sea Level Pressure 30.23 in    
Wind  
Wind Speed 10 mph (NNW)    
Max Wind Speed 20 mph    
Max Gust Speed 26 mph    
Visibility 10 miles    
Events      
T = Trace of Precipitation, MM = Missing Value Source: NWS Daily Summary

Daily Weather History Graph

Daily Weather History Graph

Search for Another Location

Airport or City:

Trip Planner

Search our weather history database for the weather conditions in past years. The results will help you decide how hot, cold, wet, or windy it might be!

Date:

Astronomy

Dec. 26, 2012 Rise Set
Actual Time 7:34 AM CST 5:11 PM CST
Civil Twilight 7:05 AM CST 5:40 PM CST
Nautical Twilight 6:32 AM CST 6:12 PM CST
Astronomical Twilight 6:01 AM CST 6:44 PM CST
Moon 4:04 PM CST (12/26) 5:59 AM CST (12/26)
Length of Visible Light 10h 34m
Length of Day
9h 36m
Waxing Gibbous, 97% of the Moon is Illuminated
Dec 26
Waxing Gibbous
Dec 28
Full
Jan 4
Last Quarter
Jan 11
New
Jan 18
First Quarter

Hourly Weather History & Observations

Time (CST) Temp. Windchill Dew Point Humidity Pressure Visibility Wind Dir Wind Speed Gust Speed Precip Events Conditions
12:52 AM 18.0 °F 3.1 °F 8.1 °F 65% 30.23 in 10.0 mi North 16.1 mph 25.3 mph N/A   Overcast
1:52 AM 17.1 °F 0.6 °F 8.1 °F 68% 30.24 in 10.0 mi NNW 19.6 mph 26.5 mph N/A   Overcast
2:52 AM 15.1 °F -0.6 °F 7.0 °F 70% 30.25 in 10.0 mi NNW 16.1 mph 24.2 mph N/A   Overcast
3:52 AM 14.0 °F -0.2 °F 7.0 °F 74% 30.24 in 10.0 mi North 12.7 mph - N/A   Mostly Cloudy
4:01 AM 14.0 °F -2.0 °F 6.8 °F 73% 30.21 in 10.0 mi North 16.1 mph 20.7 mph N/A   Scattered Clouds
4:52 AM 12.9 °F -1.6 °F 7.0 °F 77% 30.25 in 10.0 mi NNW 12.7 mph 19.6 mph N/A   Clear
5:52 AM 12.9 °F 0.7 °F 7.0 °F 77% 30.24 in 10.0 mi North 9.2 mph - N/A   Clear
6:52 AM 12.0 °F 1.5 °F 7.0 °F 80% 30.24 in 10.0 mi North 6.9 mph - N/A   Clear
7:52 AM 12.0 °F 2.7 °F 7.0 °F 80% 30.25 in 10.0 mi North 5.8 mph - N/A   Clear
8:52 AM 15.1 °F 2.5 °F 8.1 °F 74% 30.30 in 10.0 mi NNW 10.4 mph - N/A   Clear
10:52 AM 21.9 °F 13.4 °F 10.0 °F 60% 30.30 in 10.0 mi WNW 6.9 mph - N/A   Clear
11:52 AM 26.1 °F 17.6 °F 12.0 °F 55% 30.28 in 10.0 mi NNW 8.1 mph - N/A   Clear
12:52 PM 28.0 °F 21.7 °F 12.0 °F 51% 30.25 in 10.0 mi Variable 5.8 mph - N/A   Clear
1:52 PM 30.0 °F 26.5 °F 14.0 °F 51% 30.22 in 10.0 mi Variable 3.5 mph - N/A   Clear
3:52 PM 32.0 °F - 16.0 °F 52% 30.22 in 10.0 mi Calm Calm - N/A   Clear
4:52 PM 30.0 °F - 15.1 °F 54% 30.23 in 10.0 mi Calm Calm - N/A   Clear
5:52 PM 26.1 °F - 14.0 °F 60% 30.21 in 10.0 mi Calm Calm - N/A   Clear
6:52 PM 25.0 °F - 14.0 °F 63% 30.22 in 10.0 mi Calm Calm - N/A   Clear
7:52 PM 24.1 °F - 14.0 °F 65% 30.22 in 10.0 mi Calm Calm - N/A   Clear
8:52 PM 19.9 °F - 12.9 °F 74% 30.20 in 10.0 mi Calm Calm - N/A   Clear
9:52 PM 19.9 °F - 12.9 °F 74% 30.19 in 10.0 mi Calm Calm - N/A   Clear
10:52 PM 21.0 °F - 15.1 °F 78% 30.19 in 10.0 mi Calm Calm - N/A   Clear
11:52 PM 24.1 °F - 16.0 °F 71% 30.17 in 10.0 mi Calm Calm - N/A   Clear